This is the latest recevied weather packets stored in our database for station/object KJ5JYX. If no packets are shown the sender has not sent any weather packets the latest 10 day(s).
| Time | Temp. | Humidity | Pressure | Rain* | Wind** | Luminosity | Snow |
|---|---|---|---|---|---|---|---|
| 1777878301 | 17.78° C | 75% | 1016.5 hPa | 0 mm | - | 0 W/m² | - |
| 1777877996 | 17.78° C | 75% | 1016.8 hPa | 0 mm | - | 0 W/m² | - |
| 1777877693 | 17.78° C | 75% | 1016.9 hPa | 0 mm | - | 0 W/m² | - |
| 1777877391 | 17.78° C | 75% | 1017.1 hPa | 0 mm | - | 0 W/m² | - |
| 1777877088 | 17.78° C | 74% | 1017.4 hPa | 0 mm | - | 0 W/m² | - |
| 1777876785 | 17.78° C | 74% | 1017.3 hPa | 0 mm | - | 0 W/m² | - |
| 1777876482 | 17.78° C | 74% | 1017.4 hPa | 0 mm | - | 0 W/m² | - |
| 1777876178 | 17.78° C | 72% | 1017.6 hPa | 0 mm | - | 0 W/m² | - |
| 1777875875 | 17.78° C | 73% | 1017.6 hPa | 0 mm | - | 0 W/m² | - |
| 1777875571 | 17.78° C | 73% | 1017.5 hPa | 0 mm | - | 0 W/m² | - |
| 1777875268 | 17.78° C | 73% | 1017.6 hPa | 0 mm | - | 0 W/m² | - |
| 1777874965 | 18.33° C | 72% | 1017.6 hPa | 0 mm | - | 0 W/m² | - |
| 1777874661 | 18.33° C | 71% | 1017.7 hPa | 0 mm | - | 0 W/m² | - |
| 1777874358 | 18.33° C | 70% | 1017.6 hPa | 0 mm | - | 0 W/m² | - |
| 1777874056 | 18.33° C | 69% | 1017.8 hPa | 0 mm | - | 0 W/m² | - |
| 1777873754 | 18.33° C | 69% | 1017.7 hPa | 0 mm | - | 0 W/m² | - |
| 1777873450 | 18.33° C | 69% | 1017.7 hPa | 0 mm | - | 0 W/m² | - |
| 1777873147 | 18.89° C | 67% | 1017.8 hPa | 0 mm | - | 0 W/m² | - |
| 1777872843 | 18.89° C | 67% | 1018 hPa | 0 mm | - | 0 W/m² | - |
| 1777872541 | 18.33° C | 68% | 1017.9 hPa | 0 mm | - | 0 W/m² | - |
| 1777872239 | 18.33° C | 66% | 1017.8 hPa | 0 mm | - | 0 W/m² | - |
| 1777871936 | 18.33° C | 66% | 1017.8 hPa | 0 mm | - | 0 W/m² | - |
| 1777871632 | 17.78° C | 67% | 1017.9 hPa | 0 mm | - | 0 W/m² | - |
| 1777871329 | 17.78° C | 68% | 1017.8 hPa | 0 mm | - | 0 W/m² | - |
| 1777871026 | 16.67° C | 71% | 1018.1 hPa | 0 mm | - | 0 W/m² | - |
* Rain latest hour (hover to see other rain measurements)
** Current wind speed in m/s (hover to see current wind gust speed)